Flag for Germany Weather past 2 weeks in Weyhe, Lower Saxony, Germany

45 °F

Partly sunny.

Feels Like: 40 °F
Forecast: 36 / 44 °F
Wind: 9 mph from West

Location: Bremen Airport

Current Time: Nov 25, 2015 at 4:08:37 PM

Latest Report: Nov 25, 2015 at 3:20 PM

Visibility: N/A

Pressure: 29.59 "Hg

Humidity: 87%

Dew point: 41 °F

Location of WeyheLocation

Historic Weather in Weyhe — Graph


Weyhe temperature yesterday

Maximum temperature yesterday: 39 °F (at 12:50 AM)
Minimum temperature yesterday: 36 °F (at 3:50 PM)
Average temperature yesterday: 37 °F

Past Weeks' High & Low Weather Summary

High59 °F (Nov 10, 2:20 PM)100% (Nov 10, 8:20 PM)30.24 "Hg (Nov 10, 8:20 PM)
Low28 °F (Nov 22, 12:20 AM)57% (Nov 23, 1:20 PM)29.33 "Hg (Nov 21, 3:20 AM)
Average47 °F87%29.82 "Hg
* Reported Nov 10 2:20 PM — Nov 25 2:50 PM, Weyhe, Weather by CustomWeather, © 2015

Note: Actual official high and low records may vary slightly from our data, if they occured in-between our weather recording intervals... More about our weather records


Weyhe weather history for previous 24 hours

Time TempWeatherWind HumidityBarometerVisibility
2:50 PM
Wed, Nov 25
43 °FPartly sunny.9 mph93%29.59 "HgN/A
2:20 PM43 °FBroken clouds.8 mph93%29.59 "HgN/A
1:50 PM45 °FPartly sunny.14 mph87%29.59 "HgN/A
1:20 PM45 °FPartly sunny.12 mph87%29.59 "HgN/A
12:50 PM45 °FPartly sunny.10 mph87%29.59 "HgN/A
12:20 PM43 °FPartly sunny.9 mph93%29.59 "HgN/A
11:50 AM43 °FPartly sunny.9 mph93%29.59 "Hg6 mi
11:20 AM43 °FPartly sunny.8 mph93%29.62 "Hg4 mi
10:50 AM41 °FFog.9 mph100%29.62 "Hg3 mi
10:20 AM41 °FFog.10 mph100%29.62 "Hg3 mi
9:50 AM41 °FFog.9 mph100%29.62 "Hg3 mi
9:20 AM41 °FFog.8 mph93%29.62 "Hg3 mi
8:50 AM41 °FFog.8 mph93%29.62 "Hg3 mi
7:20 AM39 °FFog.8 mph100%29.59 "Hg2 mi
6:50 AM39 °FDrizzle. Fog.8 mph100%29.59 "Hg2 mi
6:20 AM39 °FDrizzle. Fog.8 mph93%29.59 "Hg3 mi
5:50 AM39 °FFog.9 mph93%29.62 "Hg2 mi
5:20 AM39 °FFog.9 mph93%29.62 "Hg3 mi
4:20 AM37 °FChilly.9 mph100%29.62 "HgN/A
3:50 AM37 °FLow clouds.9 mph93%29.62 "Hg4 mi
3:20 AM37 °FLow clouds.12 mph93%29.62 "Hg5 mi
2:50 AM37 °FLow clouds.10 mph93%29.65 "HgN/A
2:20 AM37 °FLow clouds.10 mph93%29.65 "HgN/A
12:50 AM37 °FDrizzle. Low clouds.10 mph93%29.68 "HgN/A
12:20 AM36 °FDrizzle. Low clouds.10 mph100%29.68 "HgN/A
11:50 PM
Tue, Nov 24
36 °FDrizzle. Low clouds.12 mph100%29.68 "Hg5 mi
11:20 PM36 °FDrizzle. Low clouds.13 mph93%29.71 "HgN/A
10:50 PM36 °FDrizzle. Low clouds.14 mph93%29.71 "HgN/A
10:20 PM36 °FPassing clouds.13 mph93%29.71 "HgN/A
9:50 PM36 °FPassing clouds.13 mph93%29.71 "HgN/A
9:20 PM36 °FLight rain. Passing clouds.12 mph93%29.74 "HgN/A
8:50 PM36 °FLight rain. Passing clouds.13 mph93%29.74 "HgN/A
8:20 PM36 °FLight rain. Passing clouds.15 mph93%29.74 "Hg5 mi
7:50 PM36 °FLight rain. Passing clouds.14 mph93%29.77 "Hg5 mi
7:20 PM36 °FLight rain. Passing clouds.14 mph93%29.77 "Hg5 mi
6:50 PM36 °FLight rain. Passing clouds.14 mph93%29.77 "Hg4 mi
6:20 PM36 °FLight rain. Passing clouds.15 mph93%29.80 "Hg4 mi
5:50 PM36 °FLight rain. Passing clouds.16 mph93%29.80 "Hg4 mi
5:20 PM36 °FLight rain. Passing clouds.14 mph93%29.83 "Hg4 mi
4:50 PM36 °FLight rain. Passing clouds.16 mph93%29.83 "Hg4 mi
4:20 PM36 °FLight rain. Passing clouds.16 mph93%29.83 "Hg5 mi
Weather by CustomWeather, © 2015

See weather overviewHow to use our weather pages